SCP
0 0 0 0 -0 -0 0 0 0 0 -0 -0 -0 0 0 0 0 0 0 0 0 0 0 0 -0 0 0 -0 0 -0 -0 -0 -0 -0 -0 0 0 0 0 0 0 0 0 0 0 0 0
0 0 0 0 0 -0 0 0 0 0 0 -0 -0 0 0 0 0 0 0 0 0 -0 -0 -0 -0 0 -0 -0 -0 -0 -0 -0 -0 -0 -0 -0 0 0 0 0 0 0 0 0 0 0 0
0 0 0 0 0 0 0 0 0 0 0 -0 -0 0 0 0 0 0 0 0 0 -0 -0 -0 0 0 -0 0 -0 -0 -0 -0 -0 0 0 0 0 0 0 0 0 0 0 0 0 0 0
0 0 0 0 0 0 0 0 0 0 0 -0 -0 -0 -0 0 0 0 0 0 0 -0 -0 -0 0 0 0 0 0 -0 -0 0 -0 0 0 0 0 0 0 0 0 0 0 0 0 0 0
0 0 0 0 0 0 0 0 0 0 0 0 0 -0 -0 0 0 0 0 0 0 0 -0 0 0 0 0 0 -0 -0 0 0 0 0 0 0 0 0 0 0 0 0 0 0 0 0 0
0 0 0 0 0 0 0 0 0 0 0 0 0 0 0 0 0 0 0 0 0 0 0 0 0 -0 0 0 0 0 0 0 0 0 0 0 0 0 0 0 0 0 0 0 0 0 0
0 0 0 0 0 0 0 0 0 0 0 0 0 0 0 0 0 0 0 0 0 0 0 0 0 0 0 0 0 -0 0 0 -0 0 0 0 0 0 0 0 0 0 0 0 0 0 0
0 0 0 0 0 0 0 0 0 0 0 0 0 0 0 0 0 0 0 0 0 0 -0 0 -0 0 0 0 0 -0 0 0 0 0 0 0 0 0 0 0 0 0 0 0 0 0 0
0 0 0 0 0 0 0 0 0 0 0 0 0 0 0 0 0 0 0 0 0 0 0 0 0 0 0 0 0 0 0 0 0 0 0 0 0 0 0 0 0 0 0 0 0 0 0
0 0 0 0 0 0 0 0 0 0 0 0 0 0 0 0 0 0 0 0 0 0 -0 0 0 0 0 0 -0 0 0 0 0 0 0 0 0 0 0 0 0 0 0 0 0 0 0
0 0 0 0 0 0 0 0 0 0 0 0 0 0 0 0 0 0 0 0 0 -0 -0 0 0 0 0 0 0 0 0 0 0 0 0 0 0 0 0 0 0 0 0 0 0 0 0
0 0 0 0 0 0 0 0 0 0 0 0 0 0 0 0 0 0 0 0 0 -0 -0 -0 0 -0 0 -0 0 0 0 0 0 0 0 0 0 0 0 0 0 0 0 0 0 0 0
0 0 0 0 0 0 0 0 0 0 0 0 0 0 0 0 0 0 0 -0 0 -0 -0 -0 -0 -0 -0 -0 -0 0 0 0 0 0 0 0 0 0 0 0 0 0 0 0 0 0 0
0 0 0 0 0 0 0 0 0 0 0 0 0 0 0 0 0 0 0 -0 -0 -0 0 0 -0 -0 0 0 0 0 0 0 0 0 0 0 0 0 0 0 0 0 0 0 0 0 0
0 0 0 0 0 0 0 0 0 0 0 0 0 0 0 0 0 0 0 0 0 0 -0 -0 0 0 0 -0 0 0 0 0 0 0 0 0 0 0 0 0 0 0 0 0 0 0 0
0 0 0 0 0 0 0 0 0 0 0 0 0 0 0 0 0 0 0 0 0 0 0 -0 0 0 0 -0 0 0 0 0 0 0 0 0 0 0 0 0 0 0 0 0 0 0 0
0 0 0 0 0 0 0 0 0 0 0 0 0 0 0 0 0 0 0 0 0 0 0 0 0 0 0 0 0 0 0 0 0 0 0 0 0 0 0 0 0 0 0 0 0 0 0
0 0 0 0 0 0 0 0 0 0 0 0 0 0 0 0 0 0 0 0 0 0 0 0 0 0 0 0 0 0 0 0 0 0 0 0 0 0 0 0 0 0 0 0 0 0 0
0 0 0 0 0 0 0 0 0 0 0 0 0 0 0 0 0 0 0 0 0 0 0 0 0 0 0 0 0 0 0 0 0 0 0 0 0 0 0 0 0 0 0 0 0 0 0
0 0 0 0 0 0 0 0 0 0 0 0 0 0 0 0 0 0 0 0 0 0 0 0 0 0 0 0 0 0 0 0 0 0 0 0 0 0 0 0 0 0 0 0 0 0 0
0 0 0 0 0 0 0 0 0 0 0 0 0 0 0 0 0 0 0 0 0 0 0 0 0 0 0 0 0 0 0 0 0 0 0 0 0 0 0 0 0 0 0 0 0 0 0
0 0 0 0 0 0 0 0 0 0 0 0 0 0 0 0 0 0 0 0 0 0 0 0 0 0 0 0 0 0 0 0 0 0 0 0 0 0 0 0 0 0 0 0 0 0 0
0 0 0 0 0 0 0 0 0 0 0 0 0 0 0 0 0 0 0 0 0 0 0 0 0 0 0 0 0 0 0 0 0 0 0 0 0 0 0 0 0 0 0 0 0 0 0
0 0 0 0 0 0 0 0 0 0 0 0 0 0 0 0 0 0 0 0 0 0 0 0 0 0 0 0 0 0 0 0 0 0 0 0 0 0 0 0 0 0 0 0 0 0 0
0 0 0 0 0 0 0 0 0 0 0 0 0 0 0 0 0 0 0 0 0 0 0 0 0 0 0 0 0 0 0 0 0 0 0 0 0 0 0 0 0 0 0 0 0 0 0
0 0 0 0 0 0 0 0 0 0 0 0 0 0 0 0 0 0 0 0 0 0 0 0 0 0 0 0 0 0 0 0 0 0 0 0 0 0 0 0 0 0 0 0 0 0 0
0 0 0 0 0 0 0 0 0 0 0 0 0 0 0 0 0 0 0 0 0 0 0 0 0 0 0 0 0 0 0 0 0 0 0 0 0 0 0 0 0 0 0 0 0 0 0
0 0 0 0 0 0 0 0 0 0 0 0 0 0 0 0 0 0 0 0 0 0 0 0 0 0 0 0 0 0 0 0 0 0 0 0 0 0 0 0 0 0 0 0 0 0 0
0 0 0 0 0 0 0 0 0 0 0 0 0 0 0 0 0 0 0 0 0 0 0 0 0 0 0 0 0 0 0 0 0 0 0 0 0 0 0 0 0 0 0 0 0 0 0
Wind_Speed_500mb
8 7 9 11 14 16 16 17 17 17 16 14 14 17 19 19 22 21 16 11 18 23 22 23 17 11 10 16 18 32 29 26 16 14 20 28 29 23 9 20 43 29 24 35 53 60 60
9 6 6 9 12 14 13 15 15 15 14 12 14 18 21 22 22 18 14 12 21 25 27 28 32 23 12 19 22 27 23 26 23 24 18 23 19 25 24 9 10 30 41 51 40 41 37
10 7 4 7 11 13 11 13 11 12 11 11 15 20 22 22 20 15 13 15 18 22 22 19 14 11 35 24 30 25 16 27 30 28 29 31 30 8 12 19 39 58 19 24 36 28 20
10 7 5 5 9 10 9 11 8 9 8 11 16 20 19 16 12 16 16 13 12 13 16 11 12 12 14 33 25 16 19 16 23 35 33 38 18 33 18 28 17 7 11 7 14 28 26
9 5 7 5 8 8 8 8 5 6 6 11 16 17 17 17 18 15 15 17 13 10 21 11 15 5 8 22 44 33 25 20 17 28 24 17 18 34 26 3 6 13 4 7 1 8 11
6 4 7 7 6 7 6 5 3 3 5 11 17 15 13 14 14 16 23 16 22 17 3 10 8 7 24 25 34 25 20 15 11 12 10 19 18 10 15 19 2 11 9 8 7 5 18
6 6 7 8 6 6 5 3 1 2 4 12 17 14 11 12 18 16 6 6 8 13 50 28 17 14 30 13 23 25 19 49 9 19 8 24 22 12 14 10 9 13 2 4 9 14 11
7 7 8 9 7 4 4 1 1 2 6 11 16 15 11 17 13 1 7 7 16 17 25 23 36 23 26 33 17 42 36 20 34 11 6 14 15 19 7 26 14 9 8 9 14 10 14
7 6 8 10 8 4 3 0 2 3 7 11 14 17 14 13 5 8 7 19 25 13 9 10 23 26 31 20 29 47 33 13 18 23 25 16 10 19 12 14 21 6 9 2 10 8 14
7 7 8 10 8 5 3 2 4 5 8 11 14 16 16 12 8 9 14 15 5 1 9 19 16 15 32 7 14 47 29 14 13 7 12 15 20 13 11 8 14 10 2 20 15 4 5
8 9 9 9 8 5 4 2 4 6 9 12 15 18 20 17 12 11 7 7 7 3 7 12 10 9 34 19 6 44 21 37 15 10 7 4 10 15 11 13 13 17 41 25 7 13 11
10 11 10 9 7 5 4 2 4 7 9 13 16 18 20 20 9 9 9 9 11 9 3 4 6 11 8 27 13 11 33 17 19 14 21 8 13 10 8 22 11 34 15 13 11 8 6
13 12 12 9 7 4 4 3 5 8 10 14 17 16 15 14 10 9 9 3 9 11 4 3 2 4 9 11 11 15 10 26 12 10 12 5 8 4 19 13 17 19 15 10 10 10 5
15 14 14 11 8 3 3 3 7 8 11 13 16 12 11 11 8 12 8 8 12 4 5 7 2 7 8 2 6 17 8 12 13 11 7 10 8 14 24 7 8 10 11 8 6 7 11
16 17 16 14 10 5 2 3 9 9 14 15 14 10 9 11 18 10 5 11 5 3 5 2 4 6 4 7 5 12 9 10 8 15 9 10 5 2 6 9 11 12 10 7 3 6 5
18 18 19 17 12 7 1 3 11 14 16 17 16 10 5 14 12 6 9 9 6 5 7 1 5 7 6 13 7 10 6 8 12 15 11 7 5 3 6 13 22 11 4 10 8 9 10
21 20 22 21 16 11 3 2 10 17 14 16 16 4 7 14 10 9 8 6 7 4 5 7 5 7 7 5 8 7 8 5 13 15 16 6 5 4 9 12 8 12 9 9 5 6 4
25 22 24 25 21 15 7 1 5 18 14 11 6 4 14 11 8 11 6 7 11 2 8 9 8 9 7 10 9 6 5 4 16 14 6 7 5 8 3 1 8 8 6 8 8 12 2
31 26 26 28 25 18 11 4 1 15 16 8 5 6 12 2 8 4 7 8 9 3 7 5 6 7 11 7 9 4 7 1 12 8 3 9 7 5 2 6 4 10 7 6 6 7 6
36 30 28 30 29 23 16 9 4 9 19 8 5 5 5 6 9 17 12 9 7 8 6 11 7 5 7 7 11 9 5 1 4 5 4 4 6 10 10 8 5 1 5 4 8 6 6
39 34 29 32 36 28 21 13 8 6 20 9 3 4 6 2 5 15 10 10 10 7 5 4 7 5 9 8 5 7 5 2 1 2 2 6 5 3 5 9 4 2 3 9 6 10 8
43 38 33 33 37 33 26 19 12 10 21 10 5 8 9 10 11 16 7 9 8 7 5 4 12 10 8 9 2 11 11 7 3 1 4 6 1 4 5 7 7 2 7 8 7 3 7
47 44 37 35 38 38 32 23 17 14 18 9 7 12 4 3 8 10 7 10 11 26 12 17 40 15 21 11 32 33 31 26 12 6 3 5 5 5 3 6 2 6 3 4 2 3 7
52 47 41 37 39 42 36 28 22 20 24 15 18 11 6 2 6 7 9 17 15 7 15 13 16 12 23 43 46 40 41 36 32 27 13 6 5 5 4 4 7 7 4 5 1 6 8
53 52 45 40 40 44 41 34 27 25 29 21 20 11 9 4 18 26 30 37 39 34 17 16 11 23 53 13 9 8 9 7 9 10 14 10 7 4 6 2 2 5 3 1 4 2 11
46 57 49 46 43 45 45 39 32 28 30 32 19 17 8 33 4 22 22 31 11 9 8 10 46 49 22 5 7 7 5 8 1 1 6 7 11 7 6 7 6 5 7 8 10 3 12
29 60 57 50 46 46 48 44 37 31 32 30 33 23 11 17 16 35 11 20 13 17 11 15 17 18 9 4 5 5 4 3 4 6 4 5 6 7 0 2 10 6 12 11 8 8 11
44 44 63 53 50 48 50 47 41 35 35 33 35 38 24 11 29 21 18 23 22 19 10 29 17 9 4 4 6 6 6 9 5 6 7 9 9 5 5 6 7 19 8 9 7 5 8
74 36 64 56 53 51 52 49 44 38 38 37 35 37 33 13 17 22 21 24 22 23 20 52 2 15 22 8 2 7 4 3 8 3 2 2 11 7 12 9 11 20 10 11 5 3 7
Wind_Direction_500mb
339 1 38 30 29 32 26 35 35 30 36 48 67 83 95 109 126 130 130 88 68 60 92 84 50 42 80 59 25 6 9 34 34 63 51 56 72 85 88 118 82 94 105 96 106 97 95
325 334 27 25 25 29 23 36 37 36 47 61 79 93 102 107 121 120 114 87 69 70 102 80 65 47 83 57 12 3 11 40 42 47 56 62 24 87 73 95 76 128 129 131 117 114 112
318 319 356 17 20 23 17 36 37 43 64 78 96 104 107 107 111 106 100 105 61 79 103 88 58 29 52 43 15 2 12 44 48 52 60 62 40 67 79 80 118 129 116 106 133 137 130
312 307 312 2 15 18 6 37 35 52 82 102 114 113 109 107 112 107 86 76 67 63 90 90 43 28 72 14 8 23 38 32 60 61 71 62 60 61 46 127 109 126 106 126 163 171 181
308 309 292 330 7 12 355 38 29 61 105 127 132 122 112 102 108 112 88 80 61 90 81 76 49 124 46 6 29 35 33 45 67 72 43 45 61 62 27 35 39 12 313 84 235 32 124
352 329 285 308 353 3 347 38 19 77 135 147 146 134 119 114 114 109 108 93 42 44 143 58 45 48 21 347 13 15 28 35 80 49 56 51 62 70 27 42 3 302 320 63 141 79 62
323 323 278 296 330 350 337 41 348 124 170 165 158 147 135 129 129 125 66 39 73 64 57 64 57 81 24 27 37 30 26 43 36 63 86 39 58 28 15 40 283 248 192 52 342 170 108
291 305 273 287 309 335 320 44 235 176 189 178 169 160 138 137 139 31 5 73 112 118 80 61 54 55 30 37 41 39 56 68 49 34 88 46 41 325 83 19 349 36 67 1 301 338 99
267 282 267 283 300 312 300 189 217 190 197 182 177 173 162 151 110 31 99 118 122 105 91 56 33 29 21 33 43 10 23 51 84 59 55 89 322 350 49 20 7 322 137 271 243 321 68
256 255 258 279 296 299 285 210 207 184 201 180 173 166 170 159 119 118 109 114 113 306 82 336 359 22 6 74 55 18 36 30 51 129 100 72 5 11 36 46 4 305 194 317 267 167 216
257 237 244 272 290 294 282 224 195 177 199 180 170 165 168 163 158 176 157 116 12 175 74 326 7 35 41 73 344 17 28 62 65 353 95 272 23 7 19 333 322 269 312 294 227 164 95
262 232 231 257 281 291 281 251 186 171 190 181 169 170 177 188 179 212 233 225 330 50 104 20 17 14 56 50 31 32 32 71 62 63 48 101 79 43 313 307 337 324 336 37 44 72 61
263 232 224 240 267 287 292 270 183 165 184 181 172 167 178 196 215 229 208 285 51 80 335 4 345 23 94 20 21 30 52 44 38 14 21 98 17 29 6 1 345 2 28 2 15 9 236
262 233 224 226 248 258 305 291 175 155 171 172 175 175 179 181 215 174 160 56 74 80 71 230 209 39 79 71 44 15 50 28 17 21 48 27 339 14 342 30 276 358 63 93 297 328 288
254 240 222 221 231 233 320 317 173 152 148 158 152 142 142 151 150 152 149 57 166 22 326 36 128 143 57 3 103 87 59 21 28 20 66 28 7 118 42 22 22 336 29 184 115 296 2
244 238 226 219 220 226 257 354 173 156 141 139 138 103 91 159 165 134 76 129 123 28 359 312 107 33 102 345 64 68 38 341 338 4 11 323 11 37 32 23 8 79 315 23 16 23 317
233 237 225 219 217 223 209 24 174 163 141 139 139 143 137 157 145 83 112 123 119 34 41 56 59 96 63 86 61 59 4 8 356 323 337 26 100 30 49 25 350 350 14 20 111 81 177
232 228 227 220 218 219 216 222 166 179 157 142 125 101 157 149 81 56 86 97 121 136 38 58 91 71 82 44 55 87 109 22 351 323 359 358 124 65 112 234 58 62 67 88 107 300 237
231 224 225 220 219 219 217 215 161 188 177 139 72 77 149 111 127 83 100 75 76 89 28 58 85 64 59 93 103 80 97 268 4 28 20 341 13 34 150 341 1 65 59 69 120 83 233
231 225 221 220 217 217 216 208 207 183 184 151 138 59 94 71 99 131 138 139 111 66 73 70 111 92 109 68 42 138 121 166 9 37 16 348 73 136 189 218 181 292 128 112 109 96 257
228 224 223 218 213 219 217 210 201 188 183 169 141 119 132 195 26 120 111 131 131 131 91 110 62 74 139 120 118 114 117 147 295 336 26 84 100 60 148 137 167 229 222 158 150 226 155
227 225 217 221 218 213 219 214 200 192 184 186 152 142 119 99 111 95 43 173 128 124 80 145 103 50 75 103 192 168 144 157 146 230 71 16 191 34 146 184 213 307 278 227 278 23 324
228 227 221 217 219 214 215 212 201 185 179 186 145 137 153 45 112 91 202 155 167 136 64 80 132 99 69 97 94 90 97 90 97 119 93 74 86 63 292 213 52 6 350 104 321 305 260
221 224 223 215 218 215 214 214 204 188 190 193 178 151 124 269 76 160 116 104 114 345 129 87 115 99 130 122 101 87 80 77 74 58 55 107 82 91 213 38 28 223 130 122 266 65 55
224 220 222 218 214 214 212 212 211 196 198 188 182 177 148 102 127 99 105 116 98 92 68 73 60 131 142 123 73 61 3 21 34 37 29 53 110 48 103 154 253 242 230 87 141 132 29
213 218 218 220 215 213 212 211 212 205 208 201 186 189 162 129 225 138 121 151 132 113 52 93 127 144 161 114 88 119 183 196 258 356 9 41 75 111 56 106 207 203 170 150 144 242 5
226 217 215 217 217 212 212 212 211 208 214 205 203 195 171 112 138 161 147 187 162 128 109 143 166 173 182 93 88 130 216 150 156 187 173 21 3 126 86 199 282 178 160 148 62 247 10
236 218 214 213 216 214 210 213 212 208 216 208 208 207 198 139 151 167 165 160 153 164 143 154 125 202 102 96 117 199 131 217 97 151 187 176 139 209 79 54 330 166 145 149 169 100 359
227 224 214 211 214 215 209 210 214 211 216 211 212 207 203 171 136 160 161 168 177 166 139 168 155 160 172 98 61 107 116 110 150 219 60 291 180 184 169 216 141 168 157 148 138 99 6
Wind_Speed_850mb
8 7 9 11 14 16 16 17 17 17 16 14 14 17 19 19 22 21 16 11 18 23 22 23 17 11 10 16 18 32 29 26 16 14 20 28 29 23 9 20 43 29 24 35 53 60 60
9 6 6 9 12 14 13 15 15 15 14 12 14 18 21 22 22 18 14 12 21 25 27 28 32 23 12 19 22 27 23 26 23 24 18 23 19 25 24 9 10 30 41 51 40 41 37
10 7 4 7 11 13 11 13 11 12 11 11 15 20 22 22 20 15 13 15 18 22 22 19 14 11 35 24 30 25 16 27 30 28 29 31 30 8 12 19 39 58 19 24 36 28 20
10 7 5 5 9 10 9 11 8 9 8 11 16 20 19 16 12 16 16 13 12 13 16 11 12 12 14 33 25 16 19 16 23 35 33 38 18 33 18 28 17 7 11 7 14 28 26
9 5 7 5 8 8 8 8 5 6 6 11 16 17 17 17 18 15 15 17 13 10 21 11 15 5 8 22 44 33 25 20 17 28 24 17 18 34 26 3 6 13 4 7 1 8 11
6 4 7 7 6 7 6 5 3 3 5 11 17 15 13 14 14 16 23 16 22 17 3 10 8 7 24 25 34 25 20 15 11 12 10 19 18 10 15 19 2 11 9 8 7 5 18
6 6 7 8 6 6 5 3 1 2 4 12 17 14 11 12 18 16 6 6 8 13 50 28 17 14 30 13 23 25 19 49 9 19 8 24 22 12 14 10 9 13 2 4 9 14 11
7 7 8 9 7 4 4 1 1 2 6 11 16 15 11 17 13 1 7 7 16 17 25 23 36 23 26 33 17 42 36 20 34 11 6 14 15 19 7 26 14 9 8 9 14 10 14
7 6 8 10 8 4 3 0 2 3 7 11 14 17 14 13 5 8 7 19 25 13 9 10 23 26 31 20 29 47 33 13 18 23 25 16 10 19 12 14 21 6 9 2 10 8 14
7 7 8 10 8 5 3 2 4 5 8 11 14 16 16 12 8 9 14 15 5 1 9 19 16 15 32 7 14 47 29 14 13 7 12 15 20 13 11 8 14 10 2 20 15 4 5
8 9 9 9 8 5 4 2 4 6 9 12 15 18 20 17 12 11 7 7 7 3 7 12 10 9 34 19 6 44 21 37 15 10 7 4 10 15 11 13 13 17 41 25 7 13 11
10 11 10 9 7 5 4 2 4 7 9 13 16 18 20 20 9 9 9 9 11 9 3 4 6 11 8 27 13 11 33 17 19 14 21 8 13 10 8 22 11 34 15 13 11 8 6
13 12 12 9 7 4 4 3 5 8 10 14 17 16 15 14 10 9 9 3 9 11 4 3 2 4 9 11 11 15 10 26 12 10 12 5 8 4 19 13 17 19 15 10 10 10 5
15 14 14 11 8 3 3 3 7 8 11 13 16 12 11 11 8 12 8 8 12 4 5 7 2 7 8 2 6 17 8 12 13 11 7 10 8 14 24 7 8 10 11 8 6 7 11
16 17 16 14 10 5 2 3 9 9 14 15 14 10 9 11 18 10 5 11 5 3 5 2 4 6 4 7 5 12 9 10 8 15 9 10 5 2 6 9 11 12 10 7 3 6 5
18 18 19 17 12 7 1 3 11 14 16 17 16 10 5 14 12 6 9 9 6 5 7 1 5 7 6 13 7 10 6 8 12 15 11 7 5 3 6 13 22 11 4 10 8 9 10
21 20 22 21 16 11 3 2 10 17 14 16 16 4 7 14 10 9 8 6 7 4 5 7 5 7 7 5 8 7 8 5 13 15 16 6 5 4 9 12 8 12 9 9 5 6 4
25 22 24 25 21 15 7 1 5 18 14 11 6 4 14 11 8 11 6 7 11 2 8 9 8 9 7 10 9 6 5 4 16 14 6 7 5 8 3 1 8 8 6 8 8 12 2
31 26 26 28 25 18 11 4 1 15 16 8 5 6 12 2 8 4 7 8 9 3 7 5 6 7 11 7 9 4 7 1 12 8 3 9 7 5 2 6 4 10 7 6 6 7 6
36 30 28 30 29 23 16 9 4 9 19 8 5 5 5 6 9 17 12 9 7 8 6 11 7 5 7 7 11 9 5 1 4 5 4 4 6 10 10 8 5 1 5 4 8 6 6
39 34 29 32 36 28 21 13 8 6 20 9 3 4 6 2 5 15 10 10 10 7 5 4 7 5 9 8 5 7 5 2 1 2 2 6 5 3 5 9 4 2 3 9 6 10 8
43 38 33 33 37 33 26 19 12 10 21 10 5 8 9 10 11 16 7 9 8 7 5 4 12 10 8 9 2 11 11 7 3 1 4 6 1 4 5 7 7 2 7 8 7 3 7
47 44 37 35 38 38 32 23 17 14 18 9 7 12 4 3 8 10 7 10 11 26 12 17 40 15 21 11 32 33 31 26 12 6 3 5 5 5 3 6 2 6 3 4 2 3 7
52 47 41 37 39 42 36 28 22 20 24 15 18 11 6 2 6 7 9 17 15 7 15 13 16 12 23 43 46 40 41 36 32 27 13 6 5 5 4 4 7 7 4 5 1 6 8
53 52 45 40 40 44 41 34 27 25 29 21 20 11 9 4 18 26 30 37 39 34 17 16 11 23 53 13 9 8 9 7 9 10 14 10 7 4 6 2 2 5 3 1 4 2 11
46 57 49 46 43 45 45 39 32 28 30 32 19 17 8 33 4 22 22 31 11 9 8 10 46 49 22 5 7 7 5 8 1 1 6 7 11 7 6 7 6 5 7 8 10 3 12
29 60 57 50 46 46 48 44 37 31 32 30 33 23 11 17 16 35 11 20 13 17 11 15 17 18 9 4 5 5 4 3 4 6 4 5 6 7 0 2 10 6 12 11 8 8 11
44 44 63 53 50 48 50 47 41 35 35 33 35 38 24 11 29 21 18 23 22 19 10 29 17 9 4 4 6 6 6 9 5 6 7 9 9 5 5 6 7 19 8 9 7 5 8
74 36 64 56 53 51 52 49 44 38 38 37 35 37 33 13 17 22 21 24 22 23 20 52 2 15 22 8 2 7 4 3 8 3 2 2 11 7 12 9 11 20 10 11 5 3 7
Wind_Direction_850mb
339 1 38 30 29 32 26 35 35 30 36 48 67 83 95 109 126 130 130 88 68 60 92 84 50 42 80 59 25 6 9 34 34 63 51 56 72 85 88 118 82 94 105 96 106 97 95
325 334 27 25 25 29 23 36 37 36 47 61 79 93 102 107 121 120 114 87 69 70 102 80 65 47 83 57 12 3 11 40 42 47 56 62 24 87 73 95 76 128 129 131 117 114 112
318 319 356 17 20 23 17 36 37 43 64 78 96 104 107 107 111 106 100 105 61 79 103 88 58 29 52 43 15 2 12 44 48 52 60 62 40 67 79 80 118 129 116 106 133 137 130
312 307 312 2 15 18 6 37 35 52 82 102 114 113 109 107 112 107 86 76 67 63 90 90 43 28 72 14 8 23 38 32 60 61 71 62 60 61 46 127 109 126 106 126 163 171 181
308 309 292 330 7 12 355 38 29 61 105 127 132 122 112 102 108 112 88 80 61 90 81 76 49 124 46 6 29 35 33 45 67 72 43 45 61 62 27 35 39 12 313 84 235 32 124
352 329 285 308 353 3 347 38 19 77 135 147 146 134 119 114 114 109 108 93 42 44 143 58 45 48 21 347 13 15 28 35 80 49 56 51 62 70 27 42 3 302 320 63 141 79 62
323 323 278 296 330 350 337 41 348 124 170 165 158 147 135 129 129 125 66 39 73 64 57 64 57 81 24 27 37 30 26 43 36 63 86 39 58 28 15 40 283 248 192 52 342 170 108
291 305 273 287 309 335 320 44 235 176 189 178 169 160 138 137 139 31 5 73 112 118 80 61 54 55 30 37 41 39 56 68 49 34 88 46 41 325 83 19 349 36 67 1 301 338 99
267 282 267 283 300 312 300 189 217 190 197 182 177 173 162 151 110 31 99 118 122 105 91 56 33 29 21 33 43 10 23 51 84 59 55 89 322 350 49 20 7 322 137 271 243 321 68
256 255 258 279 296 299 285 210 207 184 201 180 173 166 170 159 119 118 109 114 113 306 82 336 359 22 6 74 55 18 36 30 51 129 100 72 5 11 36 46 4 305 194 317 267 167 216
257 237 244 272 290 294 282 224 195 177 199 180 170 165 168 163 158 176 157 116 12 175 74 326 7 35 41 73 344 17 28 62 65 353 95 272 23 7 19 333 322 269 312 294 227 164 95
262 232 231 257 281 291 281 251 186 171 190 181 169 170 177 188 179 212 233 225 330 50 104 20 17 14 56 50 31 32 32 71 62 63 48 101 79 43 313 307 337 324 336 37 44 72 61
263 232 224 240 267 287 292 270 183 165 184 181 172 167 178 196 215 229 208 285 51 80 335 4 345 23 94 20 21 30 52 44 38 14 21 98 17 29 6 1 345 2 28 2 15 9 236
262 233 224 226 248 258 305 291 175 155 171 172 175 175 179 181 215 174 160 56 74 80 71 230 209 39 79 71 44 15 50 28 17 21 48 27 339 14 342 30 276 358 63 93 297 328 288
254 240 222 221 231 233 320 317 173 152 148 158 152 142 142 151 150 152 149 57 166 22 326 36 128 143 57 3 103 87 59 21 28 20 66 28 7 118 42 22 22 336 29 184 115 296 2
244 238 226 219 220 226 257 354 173 156 141 139 138 103 91 159 165 134 76 129 123 28 359 312 107 33 102 345 64 68 38 341 338 4 11 323 11 37 32 23 8 79 315 23 16 23 317
233 237 225 219 217 223 209 24 174 163 141 139 139 143 137 157 145 83 112 123 119 34 41 56 59 96 63 86 61 59 4 8 356 323 337 26 100 30 49 25 350 350 14 20 111 81 177
232 228 227 220 218 219 216 222 166 179 157 142 125 101 157 149 81 56 86 97 121 136 38 58 91 71 82 44 55 87 109 22 351 323 359 358 124 65 112 234 58 62 67 88 107 300 237
231 224 225 220 219 219 217 215 161 188 177 139 72 77 149 111 127 83 100 75 76 89 28 58 85 64 59 93 103 80 97 268 4 28 20 341 13 34 150 341 1 65 59 69 120 83 233
231 225 221 220 217 217 216 208 207 183 184 151 138 59 94 71 99 131 138 139 111 66 73 70 111 92 109 68 42 138 121 166 9 37 16 348 73 136 189 218 181 292 128 112 109 96 257
228 224 223 218 213 219 217 210 201 188 183 169 141 119 132 195 26 120 111 131 131 131 91 110 62 74 139 120 118 114 117 147 295 336 26 84 100 60 148 137 167 229 222 158 150 226 155
227 225 217 221 218 213 219 214 200 192 184 186 152 142 119 99 111 95 43 173 128 124 80 145 103 50 75 103 192 168 144 157 146 230 71 16 191 34 146 184 213 307 278 227 278 23 324
228 227 221 217 219 214 215 212 201 185 179 186 145 137 153 45 112 91 202 155 167 136 64 80 132 99 69 97 94 90 97 90 97 119 93 74 86 63 292 213 52 6 350 104 321 305 260
221 224 223 215 218 215 214 214 204 188 190 193 178 151 124 269 76 160 116 104 114 345 129 87 115 99 130 122 101 87 80 77 74 58 55 107 82 91 213 38 28 223 130 122 266 65 55
224 220 222 218 214 214 212 212 211 196 198 188 182 177 148 102 127 99 105 116 98 92 68 73 60 131 142 123 73 61 3 21 34 37 29 53 110 48 103 154 253 242 230 87 141 132 29
213 218 218 220 215 213 212 211 212 205 208 201 186 189 162 129 225 138 121 151 132 113 52 93 127 144 161 114 88 119 183 196 258 356 9 41 75 111 56 106 207 203 170 150 144 242 5
226 217 215 217 217 212 212 212 211 208 214 205 203 195 171 112 138 161 147 187 162 128 109 143 166 173 182 93 88 130 216 150 156 187 173 21 3 126 86 199 282 178 160 148 62 247 10
236 218 214 213 216 214 210 213 212 208 216 208 208 207 198 139 151 167 165 160 153 164 143 154 125 202 102 96 117 199 131 217 97 151 187 176 139 209 79 54 330 166 145 149 169 100 359
227 224 214 211 214 215 209 210 214 211 216 211 212 207 203 171 136 160 161 168 177 166 139 168 155 160 172 98 61 107 116 110 150 219 60 291 180 184 169 216 141 168 157 148 138 99 6